DateTimeUTC,F1_A11,F1_S11,BsB_S11,BsG_S11,BsR_S11,BbsB_S11,BbsG_S11,BbsR_S11,BaB_A11,BaG_A11,BaR_A11,Tu_S11,T_S11,Uu_S11,U_S11,P_S11,T1_A11
2021-08-05T13:00:00Z,00000200,20000000,,,,,,,-000.01,0000.29,0000.37,18.7,24.8,03.2,02.2,0670.3,31.0
2021-08-05T13:01:00Z,00000200,20000000,,,,,,,0000.14,-000.17,-000.36,18.7,24.8,03.2,02.2,0670.3,31.0
2021-08-05T13:02:00Z,00000200,20000000,,,,,,,-000.29,-000.10,-000.04,18.7,24.8,03.2,02.2,0670.3,31.0
2021-08-05T13:03:00Z,00000200,60000000,,,,,,,0001.06,0000.58,0000.27,18.7,24.8,03.2,02.2,0670.3,31.0
2021-08-05T13:04:00Z,00000200,40000000,0003.68,0003.15,0002.10,0001.05,0000.33,0000.44,0001.11,0001.11,0001.22,18.8,24.7,03.4,02.4,0671.3,31.0
2021-08-05T13:05:00Z,00000200,00000000,0005.05,0002.98,0001.99,0000.74,0000.44,0000.23,0000.56,0000.84,0000.87,18.9,24.7,03.3,02.3,0671.3,31.0
2021-08-05T13:06:00Z,00000200,00000000,0004.64,0003.13,0001.80,0001.15,0000.22,0000.47,0001.28,0001.01,0000.28,18.9,24.7,03.3,02.3,0671.3,31.0
2021-08-05T13:07:00Z,00000200,00000000,0004.26,0002.96,0001.82,0000.80,0000.57,0000.30,0000.97,0001.13,0000.55,18.9,24.7,03.3,02.3,0671.3,31.0
2021-08-05T13:08:00Z,00000200,00000000,0004.15,0003.20,0002.00,0001.44,0000.15,0000.63,0001.31,0000.93,0000.94,18.9,24.7,03.3,02.3,0671.3,31.0
2021-08-05T13:09:00Z,00000200,00000000,0004.12,0003.58,0001.97,0000.52,0000.34,0000.27,0000.82,0001.01,0000.65,18.9,24.7,03.3,02.3,0671.3,31.0
2021-08-05T13:10:00Z,00000200,00000000,0004.04,0003.26,0001.95,0000.01,0000.60,0000.44,0001.49,0000.80,0000.82,18.9,24.7,03.4,02.4,0671.3,31.0
2021-08-05T13:11:00Z,00000200,00000000,0004.22,0003.28,0002.01,0000.91,0000.13,0000.31,0000.52,0000.77,0000.43,19.0,24.7,03.3,02.4,0671.4,31.0
2021-08-05T13:12:00Z,00000200,00000000,0004.54,0003.26,0001.91,0000.78,0000.29,0000.30,0001.09,0000.93,0001.18,19.0,24.7,03.3,02.3,0671.4,31.0
2021-08-05T13:13:00Z,00000200,00000000,0004.12,0003.06,0001.72,0000.09,0000.35,0000.30,0001.02,0001.41,0000.55,19.0,24.7,03.3,02.3,0671.4,31.0
2021-08-05T13:14:00Z,00000200,00000000,0003.80,0003.44,0001.83,0000.82,0000.30,0000.38,0000.92,0000.61,0000.75,19.0,24.7,03.3,02.3,0671.4,31.0
2021-08-05T13:15:00Z,00000200,00000000,0004.61,0003.04,0002.31,0000.36,0000.29,0000.33,0001.17,0001.01,0000.63,19.0,24.7,03.3,02.3,0671.4,31.0
2021-08-05T13:16:00Z,00000200,00000000,0004.43,0003.47,0001.86,0000.72,0000.33,0000.18,0000.72,0000.95,0000.54,19.0,24.7,03.4,02.4,0671.4,31.0
2021-08-05T13:17:00Z,00000200,00000000,0004.38,0003.37,0001.92,0000.04,0000.57,0000.12,0001.60,0001.20,0001.00,19.0,24.7,03.3,02.3,0671.4,31.0
2021-08-05T13:18:00Z,00000200,00000000,0004.41,0003.16,0001.84,0000.08,0000.05,0000.06,0000.69,0000.63,0000.48,19.0,24.8,03.2,02.3,0671.4,30.9
2021-08-05T13:19:00Z,00000200,00000000,0003.42,0003.43,0001.94,0000.53,0000.64,0000.42,0000.96,0000.90,0000.72,19.0,24.8,03.2,02.3,0671.4,31.0
2021-08-05T13:20:00Z,00000200,00000000,0004.14,0003.55,0001.69,0000.45,0000.50,0000.35,0001.05,0000.85,0000.93,19.1,24.8,03.2,02.3,0671.5,31.0
2021-08-05T13:21:00Z,00000200,00000000,0003.88,0003.27,0002.13,0000.19,0000.56,0000.43,0001.28,0000.81,0000.66,19.1,24.8,03.3,02.3,0671.5,31.0
2021-08-05T13:22:00Z,00000200,00000000,0003.80,0003.30,0002.09,0000.89,0000.33,0000.24,0001.04,0001.17,0000.90,19.1,24.8,03.3,02.3,0671.5,31.0
2021-08-05T13:23:00Z,00000200,00000000,0004.62,0003.15,0002.08,0000.84,0000.32,0000.80,0001.01,0001.12,0000.72,19.1,24.8,03.3,02.3,0671.5,31.0
2021-08-05T13:24:00Z,00000200,00000000,0003.55,0003.33,0001.87,0000.34,0000.63,0000.43,0000.94,0000.79,0000.77,19.1,24.8,03.3,02.3,0671.4,31.0
2021-08-05T13:25:00Z,00000200,00000000,0004.39,0002.94,0001.69,0001.09,0000.77,0000.34,0001.38,0001.26,0000.85,19.1,24.8,03.3,02.3,0671.4,31.0
2021-08-05T13:26:00Z,00000200,00000000,0004.73,0003.18,0002.11,0000.31,0000.52,0000.16,0000.54,0000.77,0000.37,19.1,24.8,03.4,02.4,0671.4,31.0
2021-08-05T13:27:00Z,00000200,00000000,0003.20,0002.74,0002.05,0000.36,0000.63,0000.24,0002.34,0001.97,0002.11,19.2,24.8,03.6,02.5,0671.4,31.0
2021-08-05T13:28:00Z,00000200,00000000,0004.51,0003.19,0001.91,0000.46,0000.52,0000.31,0000.83,0000.77,0000.23,19.2,24.8,03.7,02.6,0671.4,31.0
2021-08-05T13:29:00Z,00000200,00000000,0003.95,0003.28,0001.85,-000.19,0000.57,0000.16,0000.52,0000.37,0000.21,19.2,24.9,03.5,02.4,0671.4,31.0
2021-08-05T13:30:00Z,00000200,00000000,0003.77,0003.36,0002.01,0000.27,0000.49,0000.16,0000.72,0000.72,0000.39,19.2,24.9,03.4,02.4,0671.4,31.0
2021-08-05T13:31:00Z,00000200,00000000,0004.40,0003.06,0001.69,0000.45,0000.39,-000.06,0000.96,0000.75,0000.98,19.2,24.9,03.2,02.3,0671.4,31.0
2021-08-05T13:32:00Z,00000200,00000000,0004.51,0003.20,0001.41,0000.39,0000.46,0000.10,0001.56,0001.25,0000.70,19.2,24.9,03.3,02.3,0671.5,31.0
2021-08-05T13:33:00Z,00000200,00000000,0004.26,0003.33,0001.84,0000.69,0000.57,0000.31,0002.04,0002.31,0002.22,19.2,24.9,03.6,02.5,0671.4,31.0
2021-08-05T13:34:00Z,00000200,00000000,0003.60,0002.78,0001.73,0000.22,0000.33,0000.35,0001.18,0001.18,0001.02,19.2,24.9,04.1,02.9,0671.4,31.0
2021-08-05T13:35:00Z,00000200,00000000,0003.64,0002.65,0001.35,0000.52,0000.39,0000.39,0000.76,0000.30,-000.01,19.2,24.9,03.9,02.8,0671.4,31.0
2021-08-05T13:36:00Z,00000200,00000000,0002.97,0002.73,0001.65,0000.82,0000.46,0000.34,0001.44,0001.46,0001.27,19.3,24.9,04.0,02.9,0671.4,31.0
2021-08-05T13:37:00Z,00000200,00000000,0005.09,0003.20,0001.83,0000.58,0000.33,0000.06,0000.40,0000.33,0000.06,19.3,24.9,03.9,02.7,0671.4,31.0
2021-08-05T13:38:00Z,00000200,00000000,0003.71,0002.55,0001.66,0000.32,0000.30,0000.34,0000.56,0000.67,0000.42,19.3,24.9,03.9,02.8,0671.4,31.0
2021-08-05T13:39:00Z,00000200,00000000,0004.08,0003.00,0001.73,0000.37,0000.52,0000.18,0000.32,0000.48,0000.10,19.3,24.9,03.5,02.5,0671.4,31.0
2021-08-05T13:40:00Z,00000200,00000000,0004.07,0003.33,0001.96,0000.68,0000.62,0000.35,0000.84,0000.63,0000.68,19.3,24.9,03.3,02.3,0671.4,31.0
2021-08-05T13:41:00Z,00000200,00000000,0004.45,0003.19,0002.06,0000.48,0000.49,0000.14,0001.26,0001.09,0000.60,19.3,25.0,03.3,02.4,0671.4,31.0
2021-08-05T13:42:00Z,00000200,00000000,0003.91,0003.44,0001.89,0000.54,0000.47,0000.48,0001.04,0000.32,0000.52,19.3,25.0,03.2,02.3,0671.4,31.0
2021-08-05T13:43:00Z,00000200,00000000,0004.24,0002.57,0001.89,0000.84,0000.54,0000.46,0001.41,0001.77,0001.17,19.3,25.0,03.2,02.3,0671.4,31.0
2021-08-05T13:44:00Z,00000200,00000000,0004.83,0003.05,0001.76,0001.06,0000.39,0000.30,0001.02,0000.99,0001.10,19.3,25.0,03.6,02.5,0671.4,31.0
2021-08-05T13:45:00Z,00000200,00000000,0004.49,0003.17,0001.78,0000.85,0000.34,0000.52,0000.51,0000.44,0000.23,19.4,25.0,03.3,02.3,0671.4,31.0
2021-08-05T13:46:00Z,00000200,00000000,0003.97,0003.49,0001.70,0000.87,0000.12,0000.08,0000.91,0000.75,0000.40,19.4,25.0,03.1,02.2,0671.3,31.0
2021-08-05T13:47:00Z,00000200,00000000,0003.83,0003.16,0001.47,0000.63,0000.69,0000.33,0001.63,0001.62,0001.47,19.4,25.0,03.4,02.4,0671.3,31.0
2021-08-05T13:48:00Z,00000200,00000000,0004.57,0003.22,0001.83,0000.68,0000.70,0000.34,0000.74,0000.80,-000.23,19.4,25.0,03.4,02.4,0671.3,31.0
2021-08-05T13:49:00Z,00000200,00000000,0004.60,0003.28,0001.78,-000.22,0000.24,0000.33,0000.54,-000.03,0000.42,19.4,25.0,03.2,02.3,0671.3,31.0
2021-08-05T13:50:00Z,00000200,00000000,0004.51,0003.43,0001.64,0000.78,0000.29,0000.49,0000.77,0001.07,0000.54,19.4,25.0,03.0,02.1,0671.3,31.0
2021-08-05T13:51:00Z,00000200,00000000,0004.02,0003.50,0001.97,0000.88,0000.46,0000.42,0000.85,0000.78,0000.44,19.4,25.1,03.0,02.1,0671.3,31.0
2021-08-05T13:52:00Z,00000200,00000000,0004.81,0003.32,0002.34,0000.66,0000.66,0000.19,0001.35,0000.87,0000.81,19.4,25.1,03.0,02.1,0671.3,31.0
2021-08-05T13:53:00Z,00000200,00000000,0004.09,0002.97,0001.95,0000.48,0000.58,0000.21,0000.19,0000.61,0000.86,19.4,25.1,02.9,02.1,0671.3,31.0
2021-08-05T13:54:00Z,00000200,00000000,0004.01,0003.16,0002.11,0001.39,0000.43,0000.47,0002.01,0001.39,0001.20,19.5,25.1,03.0,02.2,0671.3,31.0
2021-08-05T13:55:00Z,00000200,00000000,0005.12,0003.68,0001.92,0000.89,0000.27,0000.49,0000.32,0000.51,0000.06,19.5,25.1,02.9,02.1,0671.3,31.0
2021-08-05T13:56:00Z,00000200,00000000,0004.27,0003.21,0001.87,0000.29,0000.32,0000.27,0001.29,0000.92,0000.91,19.5,25.1,02.9,02.1,0671.3,31.0
2021-08-05T13:57:00Z,00000200,40000000,,,,,,,0000.62,0000.76,0000.76,19.5,25.1,03.1,02.2,0671.3,31.0
2021-08-05T13:58:00Z,00000200,60000000,,,,,,,-000.06,0000.08,0000.11,19.4,25.2,03.0,02.1,0670.3,31.0
2021-08-05T13:59:00Z,00000200,20000000,,,,,,,0000.08,-000.31,-000.67,19.4,25.3,03.0,02.1,0670.3,31.0
